Weather History for Montpelier, VT

Change the Weather History Date:

Wednesday, March 20, 2013

  Actual Average Record
Temperature  
Mean Temperature 25 °F 30 °F  
Max Temperature 30 °F 40 °F 78 °F (2012)
Min Temperature 20 °F 21 °F -2 °F (1949)
Degree Days  
Heating Degree Days 40 35  
Month to date heating degree days 689 766  
Since 1 July heating degree days 6238 6674  
Cooling Degree Days 0 0  
Month to date cooling degree days 0 0  
Year to date cooling degree days 0 0  
Moisture  
Dew Point 22 °F    
Average Humidity 81    
Maximum Humidity 100    
Minimum Humidity 62    
Precipitation  
Precipitation 0.03 in 0.08 in 2.14 in (1990)
Month to date precipitation 0.73 1.49  
Year to date precipitation 2.97 5.98  
Sea Level Pressure  
Sea Level Pressure 29.69 in    
Wind  
Wind Speed 6 mph (West)    
Max Wind Speed 16 mph    
Max Gust Speed 24 mph    
Visibility 6 miles    
Events Fog , Snow    
T = Trace of Precipitation, MM = Missing Value Source: NWS Daily Summary

Daily Weather History Graph

Daily Weather History Graph

Search for Another Location

Airport:

Trip Planner

Search our weather history database for the weather conditions in past years. The results will help you decide how hot, cold, wet, or windy it might be!

Date:

Astronomy

Mar. 20, 2013 Rise Set
Actual Time 6:53 AM EDT 7:02 PM EDT
Civil Twilight 6:24 AM EDT 7:31 PM EDT
Nautical Twilight 5:50 AM EDT 8:05 PM EDT
Astronomical Twilight 5:15 AM EDT 8:40 PM EDT
Moon 12:23 PM EDT (3/20) 2:42 AM EDT (3/20)
Length of Visible Light 13h 07m
Length of Day
12h 09m
First Quarter, 59% of the Moon is Illuminated
Mar 20
First Quarter
Mar 27
Full
Apr 3
Last Quarter
Apr 10
New
Apr 18
First Quarter

Hourly Weather History & Observations

Time (EDT) Temp. Windchill Dew Point Humidity Pressure Visibility Wind Dir Wind Speed Gust Speed Precip Events Conditions
12:05 AM 24.8 °F - 23.0 °F 93% 29.71 in 2.5 mi Calm Calm - 0.00 in Snow Light Snow
12:12 AM 24.8 °F - 23.0 °F 93% 29.71 in 2.0 mi Calm Calm - 0.00 in Snow Light Snow
12:27 AM 24.8 °F 19.1 °F 21.2 °F 86% 29.70 in 5.0 mi South 4.6 mph - 0.00 in Snow Light Snow
12:35 AM 24.8 °F - 21.2 °F 86% 29.69 in 5.0 mi Calm Calm - 0.00 in Snow Light Snow
12:51 AM 24.1 °F - 21.9 °F 91% 29.74 in 8.0 mi Calm Calm - 0.00 in Snow Light Snow
1:32 AM 24.8 °F - 23.0 °F 93% 29.68 in 4.0 mi Calm Calm - 0.00 in Snow Light Snow
1:46 AM 24.8 °F 20.5 °F 24.8 °F 100% 29.68 in 7.0 mi North 3.5 mph - 0.00 in Snow Light Snow
1:51 AM 24.1 °F - 24.1 °F 100% 29.73 in 8.0 mi Calm Calm - 0.00 in Snow Light Snow
2:23 AM 23.0 °F - 23.0 °F 100% 29.67 in 8.0 mi Calm Calm - N/A   Overcast
2:46 AM 23.0 °F - 23.0 °F 100% 29.67 in 9.0 mi Calm Calm - 0.00 in   Overcast
2:51 AM 24.1 °F - 23.0 °F 96% 29.72 in 9.0 mi Calm Calm - 0.00 in   Overcast
3:03 AM 23.0 °F - 23.0 °F 100% 29.66 in 10.0 mi Calm Calm - N/A   Overcast
3:14 AM 23.0 °F - 23.0 °F 100% 29.66 in 10.0 mi Calm Calm - N/A   Overcast
3:26 AM 23.0 °F - 21.2 °F 93% 29.66 in 10.0 mi Calm Calm - N/A   Overcast
3:37 AM 23.0 °F - 21.2 °F 93% 29.66 in 7.0 mi Calm Calm - 0.00 in Snow Light Snow
3:51 AM 24.1 °F 19.7 °F 23.0 °F 96% 29.71 in 2.0 mi NW 3.5 mph - 0.00 in Snow Light Snow
4:06 AM 24.8 °F 20.5 °F 23.0 °F 93% 29.66 in 5.0 mi NNW 3.5 mph - 0.00 in Snow Light Snow
4:26 AM 24.8 °F 17.9 °F 21.2 °F 86% 29.66 in 10.0 mi NNW 5.8 mph - 0.00 in   Overcast
4:51 AM 21.9 °F 15.7 °F 19.0 °F 89% 29.71 in 10.0 mi NNW 4.6 mph - 0.00 in   Overcast
5:51 AM 21.0 °F - 18.0 °F 88% 29.71 in 9.0 mi Calm Calm - N/A   Overcast
6:51 AM 21.9 °F 14.5 °F 19.0 °F 89% 29.72 in 3.0 mi NW 5.8 mph - 0.00 in Snow Light Snow
6:58 AM 21.2 °F 11.7 °F 19.4 °F 93% 29.67 in 2.5 mi WNW 8.1 mph - 0.00 in Snow Light Snow
7:08 AM 21.2 °F 13.6 °F 19.4 °F 93% 29.67 in 5.0 mi WNW 5.8 mph - 0.00 in Snow Light Snow
7:51 AM 21.0 °F 14.6 °F 18.0 °F 88% 29.73 in 9.0 mi West 4.6 mph - 0.00 in   Mostly Cloudy
8:51 AM 23.0 °F 17.0 °F 17.1 °F 78% 29.73 in 10.0 mi WNW 4.6 mph - N/A   Overcast
9:51 AM 24.1 °F 15.2 °F 16.0 °F 71% 29.73 in 10.0 mi West 8.1 mph - N/A   Overcast
10:38 AM 24.8 °F 14.0 °F 17.6 °F 74% 29.68 in 10.0 mi West 11.5 mph 16.1 mph 0.00 in   Overcast
10:51 AM 25.0 °F 16.3 °F 18.0 °F 75% 29.73 in 10.0 mi West 8.1 mph - 0.00 in   Overcast
11:08 AM 24.8 °F 14.0 °F 15.8 °F 69% 29.68 in 9.0 mi WNW 11.5 mph 17.3 mph N/A   Overcast
11:51 AM 26.1 °F 15.0 °F 15.1 °F 63% 29.72 in 10.0 mi WNW 12.7 mph 18.4 mph N/A   Overcast
1:51 PM 28.9 °F 21.1 °F 18.0 °F 64% 29.70 in 10.0 mi WSW 8.1 mph - N/A   Overcast
2:51 PM 28.9 °F 19.2 °F 21.0 °F 72% 29.69 in 9.0 mi WSW 11.5 mph 16.1 mph 0.00 in   Overcast
3:15 PM 28.4 °F 21.2 °F 23.0 °F 80% 29.64 in 2.5 mi WNW 6.9 mph 17.3 mph 0.00 in Snow Light Snow
3:25 PM 28.4 °F 22.2 °F 24.8 °F 86% 29.64 in 1.5 mi Variable 5.8 mph - 0.00 in Snow Light Snow
3:35 PM 28.4 °F 19.1 °F 23.0 °F 80% 29.64 in 3.0 mi West 10.4 mph 17.3 mph 0.00 in Snow Light Snow
3:46 PM 28.4 °F 23.3 °F 23.0 °F 80% 29.64 in 5.0 mi Variable 4.6 mph - 0.00 in Snow Light Snow
3:51 PM 28.9 °F 22.8 °F 24.1 °F 82% 29.68 in 2.5 mi WSW 5.8 mph - 0.00 in Snow Light Snow
4:08 PM 28.4 °F 19.1 °F 23.0 °F 80% 29.64 in 7.0 mi West 10.4 mph - 0.00 in Snow Light Snow
4:51 PM 28.9 °F 20.4 °F 23.0 °F 78% 29.70 in 7.0 mi West 9.2 mph 17.3 mph 0.00 in   Overcast
5:08 PM 28.4 °F 20.4 °F 24.8 °F 86% 29.65 in 1.8 mi WSW 8.1 mph - 0.00 in Snow Light Snow
5:18 PM 28.4 °F 19.7 °F 24.8 °F 86% 29.65 in 1.2 mi WSW 9.2 mph - 0.00 in Snow Light Snow
5:36 PM 28.4 °F 21.2 °F 24.8 °F 86% 29.66 in 0.8 mi West 6.9 mph - 0.00 in Snow Light Snow
5:49 PM 28.4 °F 23.3 °F 26.6 °F 93% 29.66 in 1.0 mi West 4.6 mph - 0.01 in Snow Light Snow
5:51 PM 28.0 °F 24.2 °F 26.1 °F 92% 29.71 in 1.2 mi WSW 3.5 mph - 0.01 in Snow Light Snow
5:56 PM 28.4 °F 20.4 °F 24.8 °F 86% 29.66 in 2.0 mi WSW 8.1 mph - 0.00 in Snow Light Snow
6:05 PM 28.4 °F 21.2 °F 24.8 °F 86% 29.66 in 4.0 mi WSW 6.9 mph - 0.00 in   Overcast
6:10 PM 28.4 °F 21.2 °F 24.8 °F 86% 29.66 in 2.5 mi Variable 6.9 mph - 0.00 in Snow Light Snow
6:14 PM 28.4 °F 21.2 °F 24.8 °F 86% 29.66 in 1.8 mi Variable 6.9 mph - 0.00 in Snow Light Snow
6:18 PM 28.4 °F 22.2 °F 24.8 °F 86% 29.66 in 1.0 mi Variable 5.8 mph - 0.00 in Snow Light Snow
6:29 PM 28.4 °F 22.2 °F 24.8 °F 86% 29.67 in 0.5 mi WSW 5.8 mph - 0.00 in Fog , Snow Snow
6:40 PM 26.6 °F 21.2 °F 26.6 °F 100% 29.67 in 0.2 mi SW 4.6 mph - 0.01 in Fog , Snow Heavy Snow
6:51 PM 27.0 °F 19.5 °F 25.0 °F 92% 29.73 in 1.0 mi WSW 6.9 mph - 0.01 in Snow Light Snow
6:58 PM 26.6 °F 20.0 °F 24.8 °F 93% 29.68 in 0.5 mi WSW 5.8 mph - 0.01 in Fog , Snow Snow
7:18 PM 26.6 °F 20.0 °F 24.8 °F 93% 29.68 in 1.0 mi SW 5.8 mph - 0.01 in Snow Light Snow
7:23 PM 26.6 °F 20.0 °F 24.8 °F 93% 29.69 in 1.5 mi SW 5.8 mph - 0.01 in Snow Light Snow
7:28 PM 26.6 °F 18.2 °F 24.8 °F 93% 29.69 in 3.0 mi WSW 8.1 mph - 0.01 in Snow Light Snow
7:42 PM 26.6 °F 19.1 °F 21.2 °F 80% 29.69 in 9.0 mi Variable 6.9 mph 16.1 mph 0.01 in   Overcast
7:51 PM 28.0 °F 20.0 °F 19.9 °F 72% 29.74 in 10.0 mi WSW 8.1 mph - 0.01 in   Overcast
8:51 PM 26.1 °F 19.4 °F 16.0 °F 66% 29.75 in 10.0 mi WSW 5.8 mph 20.7 mph N/A   Scattered Clouds
9:51 PM 24.8 °F 14.6 °F 14.0 °F 64% 29.69 in 10.0 mi SW 10.4 mph 21.9 mph N/A   Partly Cloudy
10:51 PM 24.1 °F 16.0 °F 14.0 °F 65% 29.75 in 10.0 mi WSW 6.9 mph 18.4 mph N/A   Clear
11:51 PM 24.1 °F 16.0 °F 14.0 °F 65% 29.75 in 10.0 mi WSW 6.9 mph - N/A   Clear